Location: ??
(34.7707°N, 135.6540°E)
Time: 20:28:37
(UTC+00:00)

Envisat - Visible Passes

Search period start: 19 September 2021 00:00
Search period end: 29 September 2021 00:00
Orbit: 764 x 766 km, 98.2° (Epoch: 19 September)

Date Brightness Start Highest point End Pass type
(mag) Time Alt. Az. Time Alt. Az. Time Alt. Az.
19 Sep 4.8 19:27:29 10° NNE 19:32:05 34° E 19:36:39 10° SSE visible
20 Sep 5.9 18:52:19 10° ENE 18:55:00 14° E 18:57:38 10° SE visible
21 Sep 3.5 19:52:26 10° NNE 19:57:29 63° E 20:02:30 10° S visible
22 Sep 5.2 19:16:17 10° NE 19:20:31 26° E 19:24:44 10° SSE visible
23 Sep 6.2 18:42:26 10° E 18:43:22 10° E 18:44:17 10° ESE visible
23 Sep 3.0 20:17:44 10° N 20:22:48 71° WNW 20:27:50 10° SSW visible
24 Sep 4.1 19:41:03 10° NNE 19:45:58 48° E 19:50:51 10° S visible
25 Sep 5.6 19:05:13 10° NE 19:08:56 20° E 19:12:38 10° SE visible
26 Sep 3.0 20:06:13 10° NNE 20:11:19 89° ESE 20:16:23 10° SSW visible
27 Sep 4.6 19:29:43 10° NNE 19:34:25 37° E 19:39:05 10° SSE visible
28 Sep 5.9 18:54:21 10° ENE 18:57:20 16° E 19:00:18 10° SE visible
